RH
100 96 94 97 103 101 101 102 100 97 89 77 70 68 68 68 67 67 66 65 66 65 65 67 67 71 77 84 96 100 92 82 75 72 67 61 62 60 51 46 44 46 48 49 50 49 49 49 50 51 51 53 53 56 57 58 60 59 57 55 60 65 62 74 90 81 68 63 67 78 85 88 89 88 89 96 102 99 91 88 89 96 102 98 94
100 92 83 83 92 96 100 101 101 101 92 80 73 69 69 69 69 68 68 68 69 70 72 74 76 81 91 98 100 96 88 78 67 61 56 51 50 47 42 39 37 37 38 40 42 43 42 41 40 41 43 46 47 50 52 54 57 55 53 53 58 68 70 74 88 89 77 67 64 70 80 84 82 78 79 86 96 101 101 95 86 84 89 97 102
102 101 94 90 90 89 93 97 100 104 100 91 83 80 80 80 80 80 80 82 82 81 81 81 83 88 100 105 95 83 73 65 58 52 48 45 43 41 40 39 37 37 36 35 35 34 34 35 37 39 41 44 45 47 49 49 50 48 48 51 58 71 78 79 88 96 88 76 69 65 64 66 66 64 65 69 76 88 102 106 99 91 85 86 92
98 101 102 102 101 96 96 96 94 95 96 96 92 89 89 91 91 90 89 91 90 88 83 79 76 77 85 87 76 65 59 55 51 48 46 44 43 42 40 38 38 38 35 33 34 36 38 39 41 43 43 44 44 43 43 42 42 41 43 49 59 74 84 83 88 100 97 84 76 71 66 62 57 50 48 50 56 67 86 102 106 103 99 98 95
98 100 100 100 102 101 102 101 96 89 86 88 90 87 85 86 88 89 88 88 86 83 78 73 69 65 64 64 60 56 54 51 48 45 43 41 40 39 37 38 38 36 37 42 47 47 45 43 42 43 42 42 41 39 38 37 37 38 41 47 61 78 89 87 86 96 99 90 82 77 73 72 66 57 48 41 42 47 58 79 99 105 102 103 104
100 101 100 100 101 101 102 104 103 93 79 73 74 72 67 67 72 75 76 75 74 72 69 66 63 59 56 54 53 51 49 47 45 43 40 39 38 36 36 36 36 40 50 58 59 52 45 42 40 40 40 39 39 38 37 37 37 38 40 47 62 78 89 91 87 89 93 90 87 82 77 77 77 72 64 53 43 38 37 49 75 99 103 97 95
101 99 99 101 102 101 96 95 98 88 66 51 49 49 48 52 57 59 61 64 65 64 61 57 53 50 48 46 44 43 42 41 40 40 39 39 37 36 37 39 46 58 65 64 58 52 48 44 41 41 40 39 39 38 38 38 38 38 40 47 60 73 83 91 92 90 90 89 89 87 80 78 80 79 76 70 59 48 39 35 47 71 94 102 96
86 88 89 91 93 89 74 62 62 60 47 37 35 35 37 43 46 49 54 54 52 49 46 44 42 40 39 38 37 36 36 37 37 37 37 37 37 40 43 48 63 76 74 66 59 54 50 47 46 44 43 42 41 40 39 39 39 39 40 45 56 67 76 87 93 93 92 90 90 89 85 80 80 80 78 75 73 67 54 42 37 43 63 90 105
73 86 89 83 75 65 49 38 35 34 32 30 31 31 31 33 34 37 40 39 38 37 37 36 36 36 35 35 35 35 36 36 36 36 36 38 41 46 50 55 69 81 80 70 61 57 55 52 51 51 50 47 45 44 42 42 41 40 40 42 48 59 69 81 90 93 94 94 92 90 88 83 80 82 79 73 73 74 68 56 45 39 40 55 84
86 89 84 69 52 41 36 33 32 29 29 29 30 31 31 31 31 32 33 33 33 33 34 34 34 34 34 35 35 35 36 35 36 37 38 42 46 51 54 60 72 83 83 72 64 64 62 57 55 56 55 53 50 48 45 44 44 42 41 40 41 48 59 71 82 89 94 98 96 92 90 85 82 83 81 75 72 71 69 64 53 45 41 38 50
87 68 58 46 35 34 32 31 31 30 31 30 31 32 32 32 32 33 33 33 33 33 34 34 34 35 35 35 36 36 36 37 37 39 43 48 54 58 62 69 77 83 80 71 67 69 67 61 58 56 55 55 54 52 50 48 47 45 43 42 40 40 46 56 69 79 87 95 97 94 91 87 84 84 83 78 74 71 69 67 60 49 44 41 37
75 50 43 36 31 32 31 32 33 32 32 32 32 32 33 34 34 35 37 36 35 35 35 36 36 36 37 38 38 39 39 40 44 52 61 68 74 75 75 76 78 79 74 68 67 69 69 66 62 57 54 54 54 53 54 53 51 49 46 43 42 41 41 44 53 64 74 87 95 96 96 94 89 86 85 82 76 73 70 69 67 55 43 44 40
73 49 40 34 33 34 34 36 35 33 34 34 34 34 34 35 36 38 39 38 38 38 38 39 39 39 41 42 41 42 44 50 65 79 89 95 96 92 90 86 83 80 75 71 68 66 65 65 62 56 51 52 54 54 54 53 53 53 49 47 44 43 42 41 44 51 60 75 89 97 100 99 97 91 89 87 80 76 74 73 71 61 47 42 41
66 49 44 41 40 40 40 38 37 37 38 38 38 38 37 38 39 40 40 40 42 43 44 45 45 45 46 47 48 52 58 71 87 99 105 108 105 99 95 89 85 83 83 82 75 68 62 58 56 52 48 49 51 53 55 54 55 55 52 49 46 44 43 42 42 43 48 56 70 88 99 101 101 98 94 90 82 76 74 73 70 64 53 43 40
57 51 49 48 49 48 47 45 44 44 44 43 42 41 40 40 41 42 42 44 45 46 47 48 48 49 52 57 62 69 75 82 89 91 95 100 103 101 95 86 81 78 81 86 82 75 67 59 55 52 48 48 50 54 59 59 58 58 55 52 49 46 44 42 42 41 42 44 50 65 83 95 99 98 96 91 83 78 74 70 67 62 54 46 41
68 71 67 66 69 67 61 59 58 56 55 54 51 48 46 44 44 44 43 45 46 47 49 50 50 52 56 64 75 82 82 80 77 74 74 80 88 94 92 84 78 73 72 75 74 70 65 60 57 53 51 52 54 58 62 61 59 57 55 54 51 48 46 44 43 42 41 42 43 46 56 71 79 83 89 88 82 79 75 70 65 61 54 46 42
77 84 86 86 89 86 79 74 71 68 67 67 64 59 55 51 49 47 46 47 48 50 52 53 53 54 56 62 71 78 78 74 71 70 72 77 81 82 79 73 70 68 65 64 62 59 56 56 56 54 55 58 60 62 62 61 58 55 52 52 51 49 47 45 43 44 43 41 42 42 43 50 55 61 72 77 79 78 75 72 68 63 56 44 40
73 76 79 80 82 82 80 78 75 73 73 75 74 72 68 63 59 55 53 52 51 52 54 55 56 57 59 62 65 68 70 72 74 75 77 83 83 77 70 64 61 60 59 56 55 53 53 55 56 57 60 64 66 66 63 60 59 58 54 52 53 52 49 47 44 44 44 42 42 41 40 43 44 48 57 64 72 77 76 76 74 69 60 47 41
68 67 67 66 67 68 70 71 69 68 70 73 77 78 77 74 71 68 64 59 56 54 54 56 57 59 61 66 69 70 69 72 79 82 83 84 82 75 67 63 60 58 57 55 55 56 59 60 62 64 67 68 68 66 63 61 61 62 60 55 53 53 53 51 47 44 44 43 42 41 40 41 40 43 49 55 62 72 77 78 78 72 62 52 42
66 64 63 60 59 60 61 60 58 59 62 65 69 72 76 79 79 78 74 69 64 60 59 58 58 59 60 64 72 75 73 71 74 78 79 77 75 72 68 67 64 62 60 58 59 60 62 64 65 67 69 68 67 65 64 62 61 62 62 57 53 53 53 53 51 47 45 44 43 42 40 40 40 40 44 47 52 62 71 75 77 72 64 56 43
69 66 64 59 55 53 52 51 50 51 52 52 54 59 66 73 79 82 82 79 76 72 71 68 66 65 65 67 72 76 76 75 75 76 76 75 74 73 72 70 67 63 61 60 61 61 63 65 66 67 68 67 65 65 65 61 57 56 56 54 53 54 53 53 52 48 45 44 43 42 41 39 39 40 40 41 44 50 60 70 75 73 67 59 45
65 62 59 54 51 50 48 48 48 48 48 46 47 49 53 59 67 74 81 85 85 85 84 83 81 80 81 83 85 87 89 88 86 85 83 81 79 76 73 69 66 63 62 63 64 66 68 68 68 68 67 67 67 66 64 59 53 52 51 51 54 56 56 54 53 49 46 44 42 41 41 40 38 39 38 38 39 43 51 63 73 75 70 61 52
61 59 56 53 53 52 52 52 52 52 52 51 50 50 50 51 54 60 68 76 81 85 87 89 91 93 95 97 98 97 96 92 88 86 85 83 80 76 72 69 67 66 66 68 69 70 71 70 70 70 69 69 69 65 60 55 51 51 50 49 52 58 59 57 55 52 48 45 43 41 41 40 39 39 38 37 37 39 44 54 70 79 74 63 54
61 61 58 57 58 58 59 59 58 57 57 57 58 57 56 56 57 58 61 66 71 76 81 86 91 95 96 97 96 93 90 88 87 87 86 84 80 77 74 72 71 73 74 76 76 73 70 68 67 67 66 66 64 61 57 53 51 52 51 51 53 58 61 61 59 56 52 49 46 44 42 41 40 39 39 37 36 38 41 48 66 81 80 69 52
66 65 63 62 62 62 62 61 60 60 59 59 59 60 61 62 63 63 64 67 71 76 82 89 94 97 97 96 95 92 91 91 92 92 90 86 82 79 79 79 80 81 81 79 76 71 67 64 62 61 61 61 61 61 60 57 55 55 53 53 56 59 61 63 63 60 58 54 50 47 45 43 41 40 40 38 36 38 40 45 62 78 82 73 55
73 71 67 64 62 62 61 60 61 61 60 59 59 59 62 63 65 66 66 67 70 74 81 87 93 98 100 101 99 97 97 97 96 95 93 89 86 84 85 86 84 81 76 72 68 65 63 62 61 61 62 65 67 68 68 68 67 64 60 58 58 60 62 64 64 63 61 58 53 49 47 44 43 41 40 40 37 38 40 42 55 75 84 76 57
81 78 75 73 72 72 72 71 71 69 66 66 66 65 66 66 67 67 67 68 68 70 74 79 85 91 95 99 101 101 101 101 99 97 93 90 90 92 91 87 80 75 71 69 67 66 65 65 65 67 70 73 75 77 77 76 75 72 70 67 66 65 65 63 62 61 61 60 56 52 49 46 44 42 41 41 39 38 40 41 49 68 83 80 61
86 87 88 90 88 86 86 85 82 79 77 75 75 75 74 72 71 70 70 70 69 69 71 75 80 85 90 94 98 100 101 100 98 96 95 95 97 94 88 81 77 74 73 71 70 70 71 72 75 78 82 84 86 88 88 86 82 78 75 73 71 69 66 63 60 58 58 58 57 55 51 48 46 44 42 42 41 39 40 41 46 62 81 83 65
97 101 102 100 97 94 92 89 84 81 80 79 78 77 74 70 68 66 67 68 69 70 71 74 77 82 87 91 93 97 99 98 98 99 100 98 93 86 81 79 78 77 75 73 75 78 80 81 84 87 90 92 93 94 96 96 93 87 80 74 70 66 64 62 60 58 55 55 55 55 53 50 47 45 43 42 41 41 41 41 44 56 77 86 71
104 106 105 100 95 92 87 82 78 76 76 77 77 74 69 66 63 62 62 65 71 76 79 82 85 88 92 94 96 98 100 100 101 100 95 89 83 79 79 80 82 84 83 81 82 87 88 87 87 88 88 90 93 93 93 90 87 82 76 70 66 64 62 60 58 56 54 52 52 52 53 52 49 46 43 42 41 41 42 43 44 51 69 86 79
99 98 95 91 87 83 78 75 73 74 78 80 78 73 69 68 69 68 67 69 74 81 89 95 100 104 106 105 103 104 103 101 96 90 84 80 80 82 85 87 90 90 88 86 87 89 89 89 90 91 91 92 91 87 81 75 71 68 67 66 65 63 61 58 55 53 51 50 49 49 49 50 49 47 44 42 41 41 41 43 46 49 61 80 84
94 91 89 86 82 78 75 74 76 81 85 84 78 74 74 77 79 78 75 74 75 81 90 99 107 112 114 111 107 103 98 92 86 82 82 85 89 93 96 95 92 89 86 86 87 87 87 90 91 91 90 86 80 74 70 67 65 64 62 60 59 57 56 55 53 51 50 48 47 46 45 45 46 47 46 43 41 40 41 42 45 49 56 71 84
90 89 87 83 79 78 78 81 86 90 88 82 76 75 79 84 85 83 80 77 76 79 85 93 99 104 105 103 99 94 88 85 84 86 90 94 97 97 94 89 84 83 84 85 84 84 85 85 83 80 77 73 71 69 67 64 61 57 55 53 51 50 49 49 49 49 48 47 45 44 43 42 41 42 44 44 43 40 40 40 42 47 53 63 77
88 88 86 84 83 85 87 90 93 91 86 81 77 78 84 87 87 86 83 80 78 78 82 86 89 91 91 90 89 87 86 85 86 88 89 88 87 85 84 82 80 78 77 77 77 77 77 75 72 71 69 68 67 65 61 57 53 50 48 46 44 43 42 41 42 43 43 44 43 42 41 40 39 39 39 41 43 41 40 40 40 44 50 56 68
93 92 92 92 91 92 94 95 94 91 88 86 85 86 87 88 88 87 85 81 79 79 80 82 84 87 90 91 91 89 87 85 83 82 82 82 84 85 83 80 77 75 74 74 73 73 72 71 70 68 66 64 61 58 54 52 49 47 44 42 40 39 37 36 36 36 37 38 39 39 39 38 37 37 37 38 40 42 40 39 40 42 47 52 59
98 97 97 96 95 96 98 96 94 92 90 89 88 87 87 88 88 87 84 81 79 80 82 85 91 95 96 96 94 90 88 86 84 84 87 92 96 94 87 81 79 78 77 75 74 73 72 71 68 64 62 59 56 54 52 50 48 46 43 41 38 36 33 31 30 29 29 30 32 34 35 35 34 33 34 35 37 40 41 40 40 40 44 49 53
99 97 96 97 98 98 98 96 94 92 89 88 88 89 90 92 92 89 87 87 88 89 91 94 95 94 93 93 91 90 89 88 89 91 96 100 100 95 88 84 81 79 77 75 75 74 71 68 66 63 60 58 56 54 52 50 47 43 40 37 34 31 29 27 25 23 22 21 22 24 27 29 30 28 29 31 34 36 39 40 40 40 42 46 51
101 99 98 98 97 96 96 96 95 92 91 93 96 99 101 100 99 99 98 98 97 96 93 90 87 84 85 87 89 92 93 93 95 99 102 100 96 91 86 82 79 77 76 76 75 74 72 70 68 66 64 61 58 54 50 45 41 37 34 31 29 26 24 22 20 19 17 16 16 17 19 21 24 24 23 24 27 32 36 38 39 41 41 43 48
101 99 97 94 93 96 99 99 98 97 99 103 107 110 110 108 106 105 102 99 97 93 89 87 87 89 91 94 97 99 99 98 100 101 99 94 89 84 81 79 78 79 79 79 77 76 75 73 71 68 63 57 51 46 42 38 34 31 27 24 21 18 16 15 14 13 12 11 11 11 13 14 17 20 20 20 21 25 30 35 37 40 42 42 45
97 94 92 93 96 102 105 105 104 104 105 106 107 109 110 106 103 100 97 96 95 95 97 100 101 101 100 101 102 101 100 100 99 95 91 86 83 81 81 83 84 84 83 81 80 78 76 72 67 60 53 47 43 39 35 30 26 22 18 16 15 14 13 12 12 11 10 9 8 8 8 10 11 13 15 16 17 19 23 29 34 37 41 42 43
95 95 97 101 105 108 108 108 108 106 106 105 104 104 105 103 101 99 97 98 99 101 106 108 103 99 98 98 99 99 99 98 93 88 85 84 85 87 88 88 87 85 83 82 79 74 68 60 54 49 45 40 36 30 25 21 18 16 15 15 14 13 13 13 11 11 9 8 8 7 7 8 8 9 11 12 13 15 18 23 29 33 38 42 43
98 101 104 108 110 108 106 106 105 103 104 104 103 103 103 102 101 101 100 102 105 106 107 102 95 93 95 96 97 97 95 91 88 87 89 91 92 92 90 88 87 85 81 76 68 61 54 49 46 42 36 30 25 21 19 18 17 17 16 15 14 13 13 13 12 10 9 8 7 7 6 6 7 8 9 9 9 11 14 18 24 29 33 39 43
101 105 108 109 108 105 102 102 104 105 106 107 105 104 103 102 103 105 106 107 107 106 103 96 91 92 95 95 96 94 90 89 91 93 95 94 92 90 89 88 85 78 70 62 55 51 48 43 37 30 24 21 19 19 19 19 18 18 17 16 15 13 12 12 11 9 9 8 7 6 5 6 6 6 8 9 9 9 10 13 19 26 30 34 41
103 108 110 107 104 102 102 103 107 110 109 109 108 108 106 105 106 106 106 104 100 98 97 93 90 93 94 93 93 92 92 94 96 95 93 91 89 89 86 80 71 63 57 53 50 46 39 32 26 23 22 22 22 22 22 21 20 19 17 15 13 12 10 10 9 9 8 8 7 6 5 5 5 6 6 8 9 8 9 10 13 20 27 31 36
109 110 108 104 101 102 104 107 109 110 110 109 109 108 106 105 104 100 97 95 93 94 95 93 92 93 93 92 92 94 96 96 94 91 90 89 86 81 72 63 57 55 53 49 42 34 29 26 25 26 26 26 26 26 24 22 20 18 16 14 12 10 9 8 8 8 7 7 7 6 5 4 5 5 6 6 8 8 8 9 10 14 23 29 33
108 106 103 103 103 104 104 103 103 105 108 107 105 103 103 102 99 96 94 94 96 98 97 95 93 94 95 97 98 97 95 92 90 88 86 80 72 64 58 56 55 51 45 37 31 28 27 27 28 29 30 30 30 28 24 22 19 16 14 13 11 9 8 7 7 7 6 7 7 6 5 5 4 4 5 6 7 7 7 8 9 10 16 26 31
106 104 102 104 105 103 100 97 95 97 99 99 98 99 100 99 99 100 100 100 100 99 98 97 99 100 101 100 97 93 90 88 85 80 72 64 59 57 56 54 48 40 34 31 30 30 30 31 32 33 34 32 30 28 25 22 19 17 15 15 13 11 9 7 7 7 6 6 6 6 5 5 4 4 5 5 6 7 6 7 10 10 12 20 29
101 98 100 101 102 102 101 100 99 98 96 96 97 98 98 101 104 103 101 100 99 101 102 103 103 101 98 94 91 88 85 80 72 64 59 58 58 56 51 43 36 33 32 32 33 34 36 38 39 37 35 33 30 28 26 24 22 20 19 18 16 13 11 9 7 7 6 6 5 5 5 4 4 4 5 5 5 7 7 6 8 10 10 14 24
99 100 102 100 99 101 101 99 98 96 96 97 99 97 97 101 104 102 100 101 102 103 102 99 96 93 90 88 85 79 72 64 59 58 58 57 53 45 38 35 34 34 35 35 36 39 41 42 41 38 36 34 32 30 28 26 24 21 18 17 16 14 11 10 8 7 6 6 5 5 4 4 5 4 4 5 5 5 7 7 7 9 11 11 18
100 100 99 97 97 97 97 95 95 96 98 98 97 97 98 101 103 104 103 102 100 97 94 92 90 87 84 78 71 64 60 58 58 58 54 47 40 36 34 35 36 37 38 41 43 44 44 42 39 37 36 35 32 30 28 25 23 21 18 16 16 14 11 10 8 7 6 5 5 5 5 4 4 4 4 5 5 5 6 7 6 8 11 11 14
91 93 96 98 97 95 93 93 94 96 98 99 100 102 105 105 104 102 100 97 95 94 92 89 85 79 72 65 61 60 60 59 55 48 42 37 35 35 35 36 38 41 45 48 49 47 44 40 38 37 36 34 32 30 28 26 24 22 20 17 16 14 12 10 9 8 6 5 5 5 5 4 4 5 4 4 5 6 6 7 7 7 9 11 12
Wind_Speed
53 52 50 49 49 49 51 53 56 57 57 57 57 57 57 56 56 56 57 58 58 58 58 58 57 58 58 58 56 55 54 55 56 55 54 55 55 55 55 57 58 59 59 59 59 60 60 60 61 61 61 60 59 58 57 55 53 51 48 45 42 39 36 34 32 31 30 30 32 33 33 33 34 32 31 31 30 29 29 31 33 34 35 36 35
57 57 56 55 54 54 54 53 54 56 57 57 57 57 57 57 57 58 58 58 59 59 58 58 58 58 59 58 57 57 57 58 58 58 59 59 59 60 61 62 62 62 63 63 63 62 62 63 63 62 62 61 59 58 56 54 52 49 47 45 42 40 37 35 34 35 34 33 33 33 34 35 36 35 34 33 33 32 31 31 31 32 34 36 36
53 55 56 55 56 57 60 59 57 56 55 56 57 58 58 58 58 59 59 59 59 60 59 59 58 59 59 59 59 60 61 62 62 63 64 64 64 65 65 65 65 64 64 64 64 63 63 62 61 61 60 59 57 55 54 52 50 48 46 45 42 40 38 36 35 36 37 36 35 35 35 36 37 36 35 36 35 34 33 32 32 32 33 35 37
45 49 52 52 52 54 58 60 60 59 59 59 60 60 61 60 60 60 60 61 61 62 61 61 61 61 61 63 64 65 66 66 67 67 67 67 67 67 66 66 65 65 64 63 62 60 57 56 55 54 54 54 54 52 51 50 49 47 46 44 42 40 39 38 36 36 37 38 37 36 36 37 38 36 35 36 36 36 36 35 34 34 33 33 35
40 44 45 46 48 50 52 55 58 59 61 61 62 62 62 62 62 62 62 63 63 64 64 64 64 64 64 66 68 68 69 69 69 69 68 68 67 67 66 65 64 63 62 59 56 53 51 50 49 48 48 49 50 49 49 48 47 46 45 44 43 41 41 40 39 38 39 39 37 37 37 37 38 38 36 36 35 36 37 37 36 35 35 33 33
47 47 48 48 49 49 51 53 55 57 59 61 62 63 63 64 65 65 65 66 66 66 66 66 66 67 67 68 69 69 70 70 69 69 68 67 66 65 64 63 61 59 56 53 51 50 50 49 48 47 46 46 46 46 46 46 46 45 45 44 43 42 42 43 42 41 40 40 39 38 37 37 38 38 38 37 36 35 35 37 38 37 36 37 36
57 56 56 56 55 54 54 53 53 54 57 60 62 63 64 64 65 65 66 66 67 67 67 67 68 68 68 68 69 69 69 68 68 67 66 65 64 63 61 59 57 55 52 51 50 50 50 49 48 46 45 44 44 44 44 44 45 44 44 44 44 44 44 44 45 44 43 42 40 39 39 38 38 38 38 38 38 38 36 36 38 38 37 38 40
61 61 61 62 61 60 59 58 58 57 57 59 60 61 63 63 63 63 64 64 65 66 66 67 67 67 67 67 67 67 66 66 65 65 64 63 61 59 57 55 54 52 51 51 51 51 50 49 47 45 44 43 42 42 43 43 43 43 44 44 45 45 45 46 46 46 45 44 43 42 41 40 39 39 39 38 38 39 40 39 38 39 38 38 41
62 60 61 62 62 61 59 59 59 59 58 59 59 60 61 62 62 62 63 63 64 65 65 65 65 65 65 65 65 64 64 64 63 62 61 60 58 57 55 54 52 52 51 51 51 50 49 47 45 44 44 43 42 42 42 43 43 43 43 44 45 46 46 47 48 48 47 46 45 44 43 42 41 41 40 40 39 39 41 42 40 40 40 41 41
60 58 58 59 59 59 57 56 57 58 58 58 58 59 59 60 61 61 62 62 62 63 63 63 64 63 63 63 63 62 62 61 61 60 59 58 57 55 54 53 52 51 51 51 50 48 47 46 44 44 44 44 44 44 44 44 44 43 44 44 45 46 47 48 49 49 49 48 48 47 46 45 43 43 42 41 40 40 41 43 43 41 41 43 42
56 57 58 58 58 58 57 56 56 56 57 57 57 57 58 58 59 59 60 61 61 61 61 62 62 62 61 61 61 61 60 60 59 58 57 57 56 55 54 53 52 51 50 50 48 47 46 46 46 46 46 46 46 46 46 46 46 45 45 45 45 46 47 48 49 50 50 50 50 49 48 47 46 45 44 43 42 41 41 42 44 42 42 45 45
57 57 58 58 59 58 57 56 55 55 55 56 56 56 56 56 56 57 58 59 59 59 59 60 60 59 59 59 59 59 59 58 57 56 55 54 54 53 53 52 52 51 51 50 49 48 47 48 48 48 49 49 48 48 48 48 48 48 47 47 47 47 47 48 50 51 51 51 52 51 50 49 49 47 46 45 44 44 42 42 44 44 42 45 47
57 57 57 57 58 57 56 55 55 54 54 55 55 55 55 55 55 55 56 57 57 57 58 58 58 57 57 57 57 56 56 55 54 53 52 52 51 52 52 52 52 52 52 51 50 49 49 49 50 51 51 50 50 50 50 50 50 50 49 49 48 48 48 49 50 51 51 52 52 53 52 51 51 50 49 48 46 45 44 43 45 45 44 45 47
58 57 56 55 56 55 54 54 53 53 53 53 54 54 54 54 54 54 55 55 55 56 56 56 56 55 55 55 54 54 53 52 52 51 50 50 50 51 51 52 52 53 53 53 53 52 51 51 52 52 53 52 51 52 52 52 52 51 51 51 50 50 50 50 50 51 51 52 53 53 54 54 53 52 51 50 48 46 45 45 45 45 45 46 46
57 56 55 54 54 53 53 52 51 51 51 52 52 53 53 53 53 54 54 54 54 55 55 54 54 54 53 53 52 52 51 51 51 51 50 50 50 51 52 52 53 53 54 54 55 55 55 55 54 54 54 54 54 53 53 53 53 54 54 53 53 52 52 51 51 51 51 52 53 53 54 55 55 54 53 51 50 47 46 46 46 46 46 46 46
55 54 54 53 52 52 52 51 51 52 51 51 51 52 52 53 53 54 54 54 54 54 54 53 53 53 53 53 52 52 52 52 52 52 51 51 52 52 53 54 54 54 55 56 57 58 58 58 57 56 56 56 56 55 55 55 55 55 55 55 54 54 54 53 53 52 52 52 53 53 54 55 56 55 53 52 51 49 47 46 46 46 46 46 45
54 52 52 51 52 52 51 52 53 53 52 52 52 52 53 53 53 54 54 54 53 53 53 53 53 53 53 53 53 53 53 53 53 53 53 53 53 54 54 55 55 56 57 57 59 59 59 59 59 58 58 58 58 57 57 56 57 56 56 55 55 55 55 55 54 54 53 52 53 53 54 54 55 54 53 53 51 50 48 46 46 46 47 46 44
54 53 53 53 54 53 53 54 54 54 53 53 53 53 54 54 54 54 54 54 54 54 54 54 54 54 54 54 54 54 55 55 55 55 55 55 55 56 56 57 57 58 59 59 60 60 61 61 61 61 60 60 59 59 58 58 58 57 56 56 56 55 55 56 55 55 54 54 53 53 53 53 54 53 53 53 51 50 49 46 45 46 46 46 44
54 54 55 55 56 56 56 56 55 54 54 54 54 55 55 55 55 55 55 55 55 55 55 55 55 55 55 55 56 56 56 56 56 57 57 57 58 58 59 59 59 60 61 61 62 62 62 63 63 62 62 62 61 60 60 60 60 58 57 57 57 56 56 56 56 55 55 55 54 54 53 53 52 52 53 53 51 50 49 47 45 45 46 46 43
54 55 55 56 55 56 56 57 56 55 55 55 56 56 56 57 57 57 57 57 57 57 56 56 56 56 56 57 57 57 58 58 58 59 59 60 60 61 61 62 62 63 63 64 64 64 64 64 64 64 63 63 62 62 62 62 61 60 59 58 58 57 57 57 57 56 56 55 55 54 54 53 52 52 52 52 51 50 49 46 45 44 45 44 42
54 53 54 54 54 53 54 54 54 55 55 56 56 56 57 57 58 58 58 58 58 58 58 57 57 57 57 58 58 59 60 60 61 61 62 62 63 64 64 65 65 65 66 66 66 66 66 66 66 65 65 65 64 64 65 64 63 61 59 58 57 58 58 57 57 57 56 56 54 54 54 53 52 51 52 52 51 50 48 46 44 43 43 43 41
52 51 52 51 51 50 51 51 52 53 53 54 54 55 56 57 58 58 59 59 59 59 59 58 58 58 59 59 60 60 61 62 63 63 64 64 65 66 66 67 67 67 67 68 67 68 68 68 67 67 67 67 67 67 66 65 64 62 60 58 57 57 57 57 57 57 57 56 55 54 54 53 52 51 51 51 49 49 47 45 43 43 42 41 38
51 51 50 49 48 49 49 50 51 51 51 52 53 54 54 55 57 58 59 59 60 60 60 60 60 60 60 61 61 62 63 63 64 65 65 66 67 68 68 69 69 69 69 70 70 69 69 69 69 69 69 69 69 68 67 66 64 63 61 59 58 57 57 57 57 57 57 57 56 55 54 53 52 51 51 50 49 48 46 44 43 42 42 40 37
51 51 50 48 48 48 49 50 50 50 50 51 51 52 53 54 55 57 58 59 60 61 61 61 61 61 62 62 63 64 64 65 65 66 67 68 69 70 70 71 71 71 71 72 72 72 72 72 71 71 70 70 69 68 68 66 65 63 62 60 59 58 57 57 57 57 57 57 56 55 54 53 52 51 52 51 49 47 46 44 42 41 41 40 38
50 51 50 48 48 49 49 50 50 50 50 50 50 50 51 52 54 56 57 59 60 61 62 62 63 63 64 64 65 65 66 66 67 68 69 70 71 71 71 72 72 73 73 73 74 74 74 73 72 71 70 69 69 68 67 67 65 64 63 62 61 59 58 57 57 57 57 57 57 56 55 54 52 52 52 51 49 48 47 45 42 41 41 40 39
50 50 50 50 50 50 50 50 50 50 51 50 50 50 51 52 53 54 56 58 59 61 62 63 64 65 65 66 66 67 67 68 68 69 70 71 71 72 72 72 72 73 73 73 73 73 73 72 71 69 68 67 67 67 67 66 66 66 65 64 62 60 59 58 57 58 58 58 58 57 56 55 53 52 52 52 50 49 47 46 43 42 42 41 40
49 50 50 50 50 50 50 50 51 51 51 51 51 51 52 53 53 54 56 57 59 60 62 63 64 65 66 67 67 68 68 69 69 70 71 71 72 72 72 72 71 72 72 72 72 71 70 69 68 67 66 65 65 65 66 66 66 66 66 66 64 62 60 59 58 58 58 58 58 58 57 56 55 54 53 52 51 50 48 47 45 42 43 43 41
49 49 49 49 49 50 50 51 52 52 52 52 53 53 54 54 55 56 56 57 59 60 62 63 64 65 66 67 67 68 69 69 70 70 70 71 71 71 70 70 70 70 71 71 70 69 68 66 65 64 63 63 64 64 65 66 67 67 67 67 66 64 63 62 61 60 59 59 59 59 58 58 56 55 54 53 52 51 50 49 46 44 43 44 43
49 49 49 49 49 50 51 52 53 53 53 54 54 55 55 56 57 57 58 58 59 60 62 63 64 65 66 67 67 68 69 69 69 69 69 69 70 70 70 70 70 71 71 70 68 66 65 63 63 63 63 63 64 64 65 67 68 69 69 69 68 67 65 64 63 62 61 60 60 60 60 59 58 57 55 54 53 53 52 51 48 46 45 46 46
51 51 51 51 51 52 52 53 53 54 54 55 55 55 56 57 57 58 58 59 59 60 61 62 63 64 65 66 67 67 68 68 68 68 69 69 69 70 70 70 71 71 71 69 67 65 64 63 63 63 63 64 65 65 66 67 69 70 70 70 70 69 68 67 66 65 63 62 61 61 61 60 60 59 58 56 55 54 53 52 51 48 47 47 48
53 53 53 53 53 54 54 54 54 54 55 55 56 56 57 57 58 58 59 59 59 60 61 61 62 63 64 65 66 67 68 68 68 69 69 69 69 70 70 71 71 70 68 67 66 65 64 64 64 64 65 65 66 67 68 69 69 69 70 70 70 70 69 69 68 67 66 65 64 63 62 62 61 61 60 59 57 56 55 54 53 52 49 49 50
54 54 55 55 55 55 55 55 55 55 55 56 56 57 57 58 58 59 59 59 60 60 61 62 63 64 65 66 67 68 68 68 68 68 69 69 70 70 70 69 68 66 65 65 64 64 64 64 64 65 66 67 68 69 70 70 70 70 70 70 70 70 70 70 70 69 69 68 67 66 65 64 63 62 62 61 60 58 57 56 55 54 52 51 52
56 56 56 57 56 56 56 56 56 56 57 57 57 58 58 59 59 59 59 59 59 60 61 62 63 64 65 66 66 67 67 67 67 68 68 69 68 67 66 64 63 63 63 63 63 63 63 64 65 66 68 69 70 71 71 71 71 71 71 72 71 71 71 71 71 71 71 71 70 69 69 67 65 64 63 63 63 61 59 58 57 57 56 54 53
58 58 58 58 57 57 57 58 59 59 59 59 59 60 60 60 60 60 59 59 60 60 60 61 61 62 62 63 64 64 65 65 65 65 65 64 63 62 62 62 63 63 62 62 63 63 64 66 67 68 69 70 71 72 73 73 73 74 74 74 74 74 73 73 73 73 73 73 73 73 72 71 69 67 65 65 65 64 63 61 59 59 58 57 56
58 58 58 58 58 59 60 60 61 61 61 61 61 61 60 60 60 59 59 59 59 60 60 60 60 60 61 62 62 62 61 61 61 61 60 61 61 62 63 64 64 63 63 64 64 65 67 68 69 70 71 72 73 74 74 75 76 76 77 77 77 77 76 76 75 75 75 75 75 75 75 74 73 71 69 67 66 66 66 64 61 61 61 60 59
58 58 58 59 60 61 62 62 62 62 62 61 61 60 60 59 58 58 58 58 58 59 59 59 59 60 60 60 59 59 59 60 61 61 62 63 63 64 64 64 64 64 64 65 66 67 68 69 70 71 72 73 74 75 76 77 78 78 79 80 80 79 79 79 78 77 77 76 76 76 77 78 77 75 72 70 69 68 68 66 65 63 63 63 62
58 59 60 61 62 62 63 63 63 62 61 60 59 59 58 57 57 57 57 58 58 58 59 59 58 58 58 57 57 59 61 62 63 63 64 64 64 64 64 64 64 65 65 66 67 69 70 71 72 73 74 75 76 77 78 79 80 80 81 81 82 81 81 81 80 79 78 76 75 75 76 78 79 78 75 73 71 70 70 69 67 66 65 65 65
60 61 62 62 63 63 63 62 62 61 59 58 57 56 56 56 56 57 57 57 58 58 57 57 56 56 56 58 60 62 63 63 63 64 64 64 64 64 64 65 65 66 66 68 69 70 72 73 74 75 76 77 78 79 80 81 81 82 82 82 81 81 80 80 79 79 78 76 74 73 73 74 77 79 78 75 73 72 72 71 70 69 68 67 67
62 63 63 63 63 62 62 61 60 59 57 55 55 55 55 56 56 56 56 57 57 57 56 56 57 58 60 62 63 64 63 63 62 62 62 63 63 64 64 65 66 67 68 69 71 72 73 75 76 77 78 79 80 81 81 82 81 81 81 80 79 78 77 76 76 76 75 74 72 70 69 70 72 75 77 76 73 72 73 73 72 71 70 69 69
64 64 64 63 62 61 60 59 58 56 54 54 54 55 56 56 56 56 56 56 56 56 57 58 61 62 63 64 64 63 62 61 61 62 62 63 63 64 65 66 67 69 70 71 72 73 75 76 77 79 80 81 81 81 81 80 79 78 77 76 75 73 73 72 72 71 71 71 69 66 63 63 65 68 72 73 72 71 71 73 74 73 73 72 71
64 64 63 62 61 60 58 57 55 53 53 53 54 55 55 56 56 56 56 57 58 59 60 62 63 63 63 63 62 61 60 60 61 62 63 63 64 66 67 68 69 70 71 72 73 74 76 77 78 79 80 80 80 79 78 77 75 74 73 71 70 69 68 68 68 68 67 66 66 63 59 58 59 61 65 68 70 69 69 71 74 75 74 74 73
64 63 61 60 59 58 56 54 53 52 52 53 54 54 55 55 56 57 58 59 60 61 62 62 61 61 60 59 59 59 60 61 61 62 63 65 66 67 68 69 70 71 72 73 74 75 77 78 78 78 78 77 76 74 73 71 70 69 68 67 66 65 64 65 65 65 64 63 62 60 56 53 53 54 58 62 65 66 66 68 72 74 75 75 75
62 61 60 59 57 55 54 53 52 52 53 54 54 55 56 57 58 59 60 60 61 61 60 60 59 58 58 58 58 59 60 61 62 63 65 66 66 67 68 69 70 71 72 74 75 76 77 77 76 75 74 72 71 69 68 67 66 66 66 65 64 63 62 61 62 61 60 60 60 58 53 49 49 49 51 56 60 62 62 64 68 72 75 76 76
60 59 58 57 55 53 53 52 53 54 55 56 57 57 57 58 59 59 60 60 60 59 59 58 58 57 58 58 59 60 61 62 63 64 65 66 66 67 68 69 70 72 73 74 75 75 74 74 73 71 69 68 67 66 65 65 65 65 65 64 63 61 59 58 58 57 56 56 57 56 51 46 45 46 46 50 55 58 58 60 64 69 74 76 77
56 56 55 54 52 52 52 53 54 55 56 57 57 57 58 58 59 59 59 59 59 59 58 58 57 58 58 59 60 61 62 63 64 64 65 65 66 67 68 70 71 72 73 73 72 72 71 69 67 66 65 64 65 65 65 64 64 63 63 62 61 59 56 54 53 52 51 50 51 53 50 44 41 42 42 46 51 54 54 56 60 65 71 75 77
52 52 51 51 51 52 53 54 55 55 56 56 56 57 58 58 58 58 58 58 58 57 57 57 58 58 60 61 62 63 63 64 64 64 65 65 66 67 69 70 71 71 71 70 69 68 66 64 62 61 62 62 63 64 64 64 63 62 61 60 60 58 55 53 50 48 47 46 45 47 47 43 40 38 39 41 47 50 51 52 56 61 67 73 76
49 49 50 50 52 53 53 54 55 56 56 56 56 56 57 57 57 57 57 57 56 57 57 58 59 60 61 62 62 63 63 63 63 64 65 66 67 68 69 69 69 69 68 67 65 63 61 60 59 59 60 61 61 62 62 62 62 61 59 58 58 58 57 54 51 48 46 44 43 43 43 41 38 37 36 38 42 47 49 49 52 57 62 69 75
49 49 50 51 52 53 53 54 54 55 55 55 55 55 56 56 56 57 56 56 57 57 59 60 60 61 62 62 62 62 63 63 64 65 66 67 67 68 67 67 66 65 64 61 59 57 56 57 58 58 59 59 59 59 59 58 58 57 56 55 55 56 55 54 51 48 44 43 41 40 39 38 37 35 34 35 38 43 46 47 50 54 59 65 72
49 50 51 51 51 51 52 53 53 53 53 54 54 55 55 56 56 56 57 57 58 59 60 60 61 61 61 61 62 62 63 64 64 65 66 66 66 66 65 64 62 60 58 56 54 54 53 54 55 55 56 56 56 56 55 54 54 53 51 49 50 51 51 50 48 46 42 40 39 38 36 35 35 34 33 33 35 39 43 45 47 51 56 61 69
49 49 50 50 50 51 51 52 52 52 53 54 54 54 55 55 56 57 58 58 59 59 59 60 60 60 61 62 62 63 64 65 65 65 65 65 64 63 61 59 56 53 52 52 52 52 52 52 52 52 52 52 52 52 51 50 50 50 49 47 46 47 47 46 45 43 39 36 35 36 35 33 32 32 31 31 33 36 40 43 45 48 53 58 65
47 47 49 50 51 51 52 52 52 52 53 53 54 54 55 56 56 57 57 57 58 58 59 60 61 62 62 63 64 65 65 65 65 64 63 62 61 59 56 52 49 48 48 49 50 51 51 51 50 50 50 50 50 49 49 49 48 48 48 46 45 44 45 44 41 40 38 34 32 32 32 31 30 30 29 29 31 34 38 41 43 46 50 56 62
Wind_Direction
259 256 257 259 261 262 262 261 260 260 261 263 264 266 267 268 268 269 270 271 272 273 274 276 277 278 279 279 279 279 280 282 284 283 283 285 284 284 285 287 287 287 288 288 289 289 289 289 289 290 290 291 292 293 293 294 295 295 294 294 292 291 290 289 287 287 289 289 288 288 290 290 290 292 293 293 291 289 283 274 267 264 263 262 259
262 260 259 259 260 260 261 262 262 261 261 262 264 266 267 268 269 270 270 271 272 273 274 276 277 278 278 278 278 279 281 283 284 284 284 285 285 284 285 287 287 287 288 288 289 290 290 290 290 290 290 291 291 292 292 293 293 292 291 291 289 288 287 286 285 286 289 290 288 286 286 286 287 288 291 290 288 288 288 284 276 267 263 262 262
262 262 262 262 262 261 260 261 262 262 262 263 264 266 267 268 269 270 271 272 273 273 274 275 276 276 276 277 279 281 282 283 284 285 285 286 286 286 287 288 289 289 289 289 290 291 291 291 290 290 290 290 291 291 292 291 290 290 289 288 287 285 283 282 283 284 286 289 289 287 286 285 285 285 287 286 285 286 286 285 282 275 267 264 262
262 262 263 264 264 262 261 261 261 262 262 264 266 267 268 269 269 270 270 271 272 273 274 274 275 275 275 276 279 281 282 283 284 284 285 286 287 288 289 290 291 291 292 292 292 293 292 292 291 290 290 290 290 290 290 289 288 287 286 285 284 282 280 279 278 279 282 286 288 288 287 287 285 285 285 283 282 283 282 281 281 278 273 268 265
262 261 261 262 262 262 263 263 262 263 263 264 266 267 268 269 269 270 270 271 272 273 274 275 275 275 276 277 279 281 282 283 284 285 286 287 288 289 290 291 292 293 293 294 294 295 295 295 294 293 292 291 290 289 288 287 286 285 284 283 281 279 277 276 276 275 277 281 284 285 286 287 287 286 285 283 281 280 280 279 277 275 273 270 268
259 260 260 260 261 263 265 264 264 265 265 265 266 267 268 269 270 270 271 272 272 273 274 275 276 276 277 278 279 280 281 283 284 285 287 288 289 290 291 291 292 292 293 293 295 296 297 296 295 294 292 291 289 288 287 286 284 284 282 281 279 276 275 275 274 273 273 276 278 280 281 283 285 286 285 285 283 279 278 278 276 272 270 268 267
258 260 262 262 263 264 265 266 267 268 268 267 267 267 268 269 270 270 271 272 272 273 274 275 275 276 277 278 278 280 281 282 284 285 286 287 289 290 290 291 291 292 293 294 295 297 297 296 295 294 292 291 289 288 286 285 284 283 281 279 277 275 274 273 273 273 272 273 274 275 276 277 279 281 283 283 284 283 280 277 275 273 269 267 265
259 259 261 262 264 265 266 268 269 270 270 270 269 268 267 268 269 269 270 271 272 273 274 275 275 276 277 278 279 280 281 282 283 285 286 287 288 289 289 289 290 291 293 295 296 297 296 295 295 294 293 292 291 289 287 285 284 282 281 279 277 275 274 273 273 273 273 273 273 273 273 273 274 275 277 278 280 282 282 279 276 274 271 266 264
259 261 261 263 265 267 268 269 269 269 270 270 269 269 268 268 269 269 269 270 272 273 274 275 275 276 277 278 279 280 281 282 283 284 285 286 286 287 287 287 288 290 292 294 295 295 295 294 294 294 295 294 293 292 291 289 287 284 282 279 277 275 274 273 273 273 273 273 272 272 271 271 271 271 272 273 273 274 277 279 277 275 273 268 263
257 259 261 263 265 267 268 269 270 269 269 269 269 269 269 269 270 270 271 271 272 272 273 274 275 276 277 278 278 279 280 281 282 283 284 284 285 286 286 287 287 289 291 292 293 293 292 292 293 294 295 295 295 294 294 292 290 288 285 282 279 276 275 274 273 273 273 273 272 272 271 271 270 271 271 271 271 271 272 274 275 275 274 271 265
257 259 260 263 264 266 267 268 269 269 269 268 268 268 268 269 270 271 271 271 272 272 273 274 275 275 276 278 278 279 280 281 282 283 284 284 285 286 287 287 288 288 289 289 289 289 289 290 292 294 294 294 294 295 295 294 293 291 288 286 283 280 277 275 273 273 273 273 273 272 272 272 271 271 271 271 271 271 270 271 273 273 273 273 269
259 259 261 263 264 265 266 266 266 266 267 267 267 267 268 268 269 270 270 271 272 272 273 274 275 276 277 278 279 280 281 282 283 284 285 286 287 287 288 288 288 287 287 287 287 287 287 288 290 292 293 293 293 293 293 294 293 292 289 287 285 283 280 277 275 274 273 273 273 273 272 272 272 272 272 272 271 271 271 271 272 272 272 272 271
258 259 260 261 262 263 263 263 264 264 265 266 267 267 267 268 268 269 269 271 272 273 274 274 275 276 277 278 279 280 281 282 283 284 285 286 287 287 288 288 288 288 287 287 286 286 286 287 288 291 292 292 292 292 292 292 292 291 289 287 285 282 281 279 276 274 273 272 272 272 272 272 272 272 272 271 271 271 272 271 272 273 273 272 271
257 258 258 257 259 260 261 262 263 264 265 265 266 266 267 267 268 268 269 270 271 272 274 275 276 277 278 279 279 280 281 281 282 283 284 285 286 286 287 287 287 288 288 287 287 286 287 288 288 290 291 291 291 292 292 292 292 291 289 287 285 283 280 279 278 276 274 273 272 271 272 272 272 271 271 271 270 269 270 271 271 272 273 273 273
254 255 256 256 258 259 260 262 263 263 264 265 266 267 267 268 268 268 268 269 271 272 273 274 276 277 278 278 279 279 279 279 280 281 281 282 283 284 284 285 286 287 287 287 287 288 289 289 289 290 291 292 292 292 292 292 292 291 290 288 285 283 281 280 278 277 276 274 273 271 270 270 270 270 270 270 270 269 269 270 271 272 273 274 274
252 254 254 256 257 259 260 261 262 262 264 265 266 267 267 268 268 268 268 269 270 271 273 274 275 275 276 276 277 277 277 278 278 279 279 280 280 281 282 283 284 285 286 287 287 288 288 289 290 290 291 292 292 292 292 292 292 291 289 287 284 282 281 279 278 277 276 275 274 272 271 269 269 269 269 270 270 270 270 270 271 272 273 275 275
251 253 254 255 257 258 260 261 261 262 263 265 266 266 267 268 268 269 270 270 270 271 271 272 273 273 274 275 275 276 277 277 278 278 278 279 279 279 280 281 282 283 284 285 286 287 288 288 289 289 291 291 292 292 291 291 292 291 290 287 284 281 279 278 277 276 276 275 275 274 272 271 270 270 270 270 270 270 271 271 272 274 275 276 277
253 254 254 255 256 258 260 260 261 262 263 264 265 266 267 268 269 270 270 270 270 270 270 271 272 273 274 274 275 276 277 278 278 278 278 278 278 279 280 281 282 283 283 284 285 286 287 288 289 289 290 291 291 291 290 291 291 291 290 289 286 282 279 277 276 275 274 274 274 274 273 272 272 272 271 271 271 271 272 272 273 275 276 278 278
257 257 257 257 257 259 260 261 262 263 263 264 264 265 266 267 267 268 268 269 269 270 270 271 272 273 274 275 276 276 277 278 278 279 279 279 279 280 281 282 282 283 283 284 285 286 287 288 289 289 289 290 290 290 290 291 291 290 289 289 286 283 280 278 276 274 273 273 273 273 273 273 273 272 272 272 271 271 272 272 273 274 276 278 279
259 260 260 260 260 261 262 263 263 263 263 263 263 264 265 265 266 267 267 268 269 269 270 271 272 273 274 275 276 277 278 278 279 280 280 280 281 281 282 282 283 283 284 284 285 286 287 287 288 288 288 288 288 288 289 290 290 288 288 287 285 282 279 277 276 274 272 272 272 272 273 273 273 273 272 272 271 271 271 271 272 273 275 277 279
261 261 262 263 263 263 264 265 265 265 264 264 264 264 264 265 266 267 268 268 269 270 271 272 273 273 275 276 277 278 279 279 280 280 281 281 282 282 283 283 284 284 285 285 286 286 287 287 287 287 287 288 288 289 289 289 288 287 286 285 283 280 278 277 275 274 272 271 270 271 272 272 272 272 271 271 271 271 270 271 271 271 273 276 279
261 261 262 263 264 264 265 265 265 265 266 266 266 265 266 266 267 268 269 270 271 272 272 273 274 275 276 277 278 279 280 280 281 281 282 283 283 284 284 284 285 286 286 286 286 287 287 287 287 288 288 288 288 289 289 289 288 286 285 283 281 279 278 277 275 274 272 271 270 269 270 271 271 271 270 270 270 270 269 269 269 269 271 273 277
261 261 261 262 263 264 265 266 266 266 266 267 267 267 268 269 269 270 271 271 272 273 273 274 275 276 277 278 279 280 280 281 282 283 283 284 284 284 285 286 286 286 287 287 287 286 286 286 287 287 288 288 288 288 288 287 287 286 285 284 282 280 278 277 276 274 273 271 270 269 269 269 270 270 270 270 270 269 268 267 266 266 268 269 271
260 261 263 263 264 265 266 266 267 267 268 268 269 270 271 272 272 273 273 273 273 274 275 275 276 277 277 278 279 279 280 281 282 283 283 283 284 285 285 286 287 287 287 288 288 288 287 287 287 287 287 287 287 287 287 287 286 286 285 285 284 282 280 279 277 275 274 272 271 270 269 269 269 269 270 270 269 268 267 266 264 263 264 266 267
260 262 263 264 264 264 265 266 267 268 269 270 271 272 273 274 274 274 275 275 275 276 276 276 277 277 277 278 278 279 280 281 281 282 282 283 284 285 286 287 287 288 288 288 289 289 289 288 288 288 287 287 287 287 287 287 287 286 285 285 285 283 281 280 279 277 275 273 271 270 269 269 268 268 269 269 268 267 266 264 262 261 260 261 263
261 262 264 264 265 265 266 267 268 269 270 272 273 273 274 274 275 276 276 276 277 277 277 277 277 277 277 278 278 279 280 280 281 282 283 284 285 286 287 288 289 289 289 289 289 289 289 288 288 287 286 286 286 286 286 286 286 286 286 285 285 283 281 280 279 278 276 274 272 271 270 269 268 268 267 267 267 266 264 262 259 258 257 256 258
262 264 266 267 268 269 270 271 271 272 273 274 275 275 275 276 276 277 277 278 278 278 278 277 277 277 278 278 279 279 280 281 281 282 283 284 286 287 288 289 289 290 290 290 290 289 288 287 286 286 285 284 284 285 285 285 285 285 285 285 285 283 282 280 279 277 276 275 273 271 270 269 267 267 266 266 266 264 262 261 257 254 253 252 254
264 266 267 268 269 271 271 272 273 274 275 275 276 276 277 277 278 278 278 279 279 279 278 278 278 278 278 279 279 279 280 281 281 282 284 285 286 287 288 289 290 290 290 291 290 289 287 286 285 284 284 283 283 284 284 284 284 285 284 284 284 283 282 281 279 277 276 274 272 271 269 268 267 266 265 264 264 263 261 259 256 252 250 249 249
264 265 267 268 269 271 272 273 274 275 276 277 278 278 278 279 279 279 279 279 279 279 279 279 279 278 278 279 279 279 280 281 282 283 284 285 286 287 288 289 290 291 291 291 290 288 286 285 284 283 283 283 283 283 283 284 284 284 284 284 283 283 282 280 279 278 275 273 271 270 269 268 267 265 264 263 263 262 260 259 255 251 247 246 247
263 264 266 268 269 271 272 274 275 277 278 278 279 280 280 280 280 279 279 279 279 279 280 280 279 279 279 279 280 280 281 282 282 283 284 285 286 287 288 289 291 292 292 291 290 288 286 285 284 284 284 284 284 284 283 283 283 283 283 283 283 282 281 280 278 277 275 273 271 269 267 267 266 265 264 263 261 260 259 257 255 250 246 244 244
263 265 266 268 269 270 272 274 276 277 278 279 279 280 280 280 280 280 279 279 279 279 280 280 280 280 280 280 280 281 281 282 283 284 284 285 287 288 289 290 291 291 290 289 288 287 286 286 286 286 286 285 285 284 284 283 282 282 281 281 281 281 280 279 278 277 275 273 271 269 267 265 264 264 263 262 261 259 258 256 254 250 245 242 242
264 265 267 268 269 270 273 275 276 277 278 278 278 279 279 279 279 279 279 279 279 279 279 279 279 279 280 280 281 281 282 283 283 284 286 287 288 289 290 290 290 290 289 289 288 287 287 287 287 287 286 285 285 284 283 283 282 281 281 280 279 279 278 278 277 276 275 273 271 269 267 265 263 262 262 261 260 258 257 255 253 250 246 241 240
265 266 267 268 270 272 274 276 277 277 277 278 277 278 278 279 279 279 279 279 280 280 280 279 279 279 280 280 281 281 282 283 285 287 288 288 289 289 289 290 290 290 289 289 288 288 288 288 287 286 286 285 285 284 284 283 282 282 281 280 279 278 277 276 275 275 274 273 271 270 268 266 263 261 260 259 259 258 256 254 252 250 246 242 238
265 266 268 269 271 273 275 277 278 278 278 278 278 278 279 280 280 280 280 280 280 280 280 280 280 280 281 281 282 283 285 286 288 288 288 288 288 289 289 290 290 290 289 289 289 289 288 288 287 286 286 286 285 285 285 284 284 283 282 281 279 278 277 275 274 273 273 272 271 270 268 266 264 262 259 258 257 257 255 253 251 249 247 243 238
266 267 269 270 272 274 276 277 278 278 278 278 279 279 280 280 280 280 279 279 279 280 280 281 281 282 283 284 285 286 287 288 288 288 288 289 290 290 290 290 291 291 290 290 289 289 289 288 288 287 287 287 287 287 286 286 285 285 284 283 281 280 279 277 275 273 272 271 270 269 268 266 264 262 260 258 256 255 254 253 250 248 246 243 239
267 268 270 272 274 275 277 277 277 278 278 279 279 280 280 280 279 279 279 280 280 281 282 283 284 285 285 285 286 286 287 289 289 289 290 290 291 290 291 291 291 291 291 290 290 289 289 289 289 288 288 288 288 288 288 287 287 286 286 285 284 283 281 280 278 275 273 271 269 268 267 266 265 262 260 258 256 254 253 252 250 248 245 243 240
268 269 271 273 274 276 277 277 278 279 280 281 281 281 280 279 279 279 280 281 282 283 284 285 285 285 285 285 286 287 289 291 291 291 291 291 291 291 291 291 290 290 290 290 290 290 291 291 291 291 291 291 290 290 290 290 289 289 288 287 286 285 284 282 281 278 276 273 270 267 266 265 264 263 260 257 255 253 252 251 249 247 245 243 241
269 271 272 274 275 277 278 279 280 281 281 281 281 280 279 279 280 280 281 282 283 283 283 284 284 285 286 287 289 290 292 292 291 291 291 291 290 290 290 290 290 291 291 292 292 292 293 293 293 293 293 292 292 292 292 292 291 291 290 289 288 287 286 285 283 281 278 276 272 269 266 264 263 262 261 258 254 252 250 249 248 246 244 242 240
270 272 274 276 278 279 280 280 281 281 280 280 279 279 279 279 280 280 281 282 283 283 284 285 287 289 289 290 291 291 291 291 290 290 290 289 289 289 290 291 292 293 293 294 294 294 294 294 294 294 294 294 294 294 294 293 293 292 291 291 290 289 288 286 285 283 281 279 276 272 269 265 263 261 260 258 255 251 248 247 246 245 243 242 240
272 274 276 278 279 280 280 280 280 279 279 278 278 278 279 279 280 281 282 283 284 284 286 288 289 289 289 289 289 289 289 288 288 288 288 289 290 291 292 293 294 294 294 295 295 295 295 295 295 295 295 295 295 295 295 295 294 294 293 292 292 291 290 289 287 285 283 282 279 276 271 267 264 261 259 258 255 251 247 245 244 243 242 240 239
274 276 278 278 278 278 279 278 278 278 277 277 278 279 279 280 281 282 283 284 285 285 286 287 288 288 287 287 287 287 287 287 288 288 290 291 292 293 294 294 294 295 295 295 295 295 296 296 296 296 296 297 296 296 296 296 295 295 294 294 293 293 292 291 289 288 286 284 282 279 275 270 265 262 259 257 255 251 247 243 241 241 240 239 238
275 277 277 277 277 277 277 276 276 277 277 277 278 279 280 281 282 282 283 284 284 285 286 287 287 287 287 286 286 287 287 288 289 290 292 292 293 294 294 294 295 295 295 296 296 297 297 297 297 297 298 297 297 297 297 297 297 297 296 296 295 295 294 293 292 290 289 287 284 282 278 274 268 262 258 256 254 251 247 242 239 238 237 237 236
276 276 276 275 275 275 274 274 275 275 276 276 277 278 279 280 281 281 282 283 284 285 285 286 287 286 286 286 287 287 288 290 291 292 292 293 293 294 294 295 295 296 297 297 298 298 299 299 299 299 299 299 299 299 299 300 300 300 299 299 298 297 296 294 293 292 290 289 287 284 281 276 270 264 258 255 253 251 247 242 238 235 234 234 234
275 274 273 272 272 272 272 273 274 274 275 275 276 277 278 279 280 281 282 283 283 284 285 286 286 286 286 287 288 289 289 290 291 291 292 293 293 294 295 296 297 297 298 299 299 300 300 301 301 301 302 302 302 302 303 302 302 302 302 301 300 299 298 296 294 293 291 290 288 286 283 278 272 266 259 254 252 250 247 242 237 234 232 232 232
272 270 269 269 270 270 271 272 274 274 275 275 275 276 277 279 280 281 282 283 284 285 285 286 286 287 287 288 288 289 290 290 291 291 292 293 294 295 296 297 298 299 300 300 301 301 302 302 303 303 304 304 305 305 305 305 305 304 304 303 302 300 299 297 295 294 292 290 288 286 285 282 275 268 260 254 251 250 247 242 237 233 230 229 229
267 266 266 267 268 269 270 271 272 272 273 273 275 276 278 280 281 282 283 284 285 285 286 286 287 287 288 288 289 289 289 290 291 292 293 294 296 297 298 299 300 301 302 302 302 303 303 303 304 305 305 306 306 306 307 307 306 306 306 306 305 304 303 301 300 298 296 293 289 286 285 284 278 270 262 254 250 249 246 242 237 233 229 227 227
263 264 265 266 267 268 269 269 270 270 272 274 276 278 279 281 282 283 284 284 285 285 286 286 287 287 287 288 288 289 290 291 292 294 295 296 297 298 300 301 302 303 303 303 303 304 304 305 306 307 307 307 308 308 308 309 309 310 311 311 310 308 307 306 304 303 300 296 292 288 286 283 279 272 264 255 249 247 246 241 236 232 229 226 225
263 265 266 267 268 269 269 270 271 272 274 276 278 279 280 281 282 283 283 284 284 285 285 285 286 286 287 288 289 290 291 293 294 295 297 298 299 300 301 302 303 303 303 303 304 305 306 307 308 308 308 308 309 309 310 311 312 312 313 312 311 309 308 307 306 305 302 299 294 290 287 284 279 273 266 257 249 246 244 241 236 232 229 225 223
265 267 268 269 269 270 271 272 274 275 277 278 279 280 280 281 282 282 283 283 283 284 284 285 285 286 287 289 290 292 293 294 296 297 298 300 301 302 303 304 304 303 303 303 304 305 306 307 307 307 308 309 310 310 311 312 312 312 312 312 311 309 308 307 307 306 304 301 297 293 289 284 280 275 267 258 250 245 243 240 236 232 229 225 223
266 268 269 270 271 272 273 275 276 277 278 279 279 280 281 281 282 282 282 283 283 284 285 286 287 288 289 291 292 293 295 296 297 299 300 301 302 303 303 304 303 303 303 304 305 306 307 307 307 307 308 309 310 311 312 313 314 314 314 315 314 312 310 309 308 308 306 302 298 295 291 286 280 275 269 260 251 245 242 239 236 232 228 225 223
267 269 271 272 272 273 274 276 277 278 278 279 280 280 281 281 281 281 282 283 285 286 287 288 289 290 291 292 294 295 296 298 299 300 301 302 302 303 303 303 302 303 304 305 306 306 307 307 308 309 310 311 312 314 316 318 318 318 318 319 318 316 313 312 312 312 311 307 302 297 293 288 282 276 269 261 252 245 241 238 236 232 228 225 223